Fryeburg, ME

5:22 AM EDT on June 27, 2017 (GMT -0400)
Eastern Slopes Regional

Weather History for KIZG - January, 2014

Change the Weather History Date:

Friday, January 10, 2014

  Actual Average Record
Temperature  
Mean Temperature 6 °F -  
Max Temperature 23 °F 26 °F 51 °F (2016)
Min Temperature -11 °F 6 °F -25 °F (2004)
Degree Days  
Heating Degree Days 59    
Moisture  
Dew Point 1 °F    
Average Humidity 74    
Maximum Humidity 83    
Minimum Humidity 60    
Precipitation  
Precipitation 0.00 in - - ()
Sea Level Pressure  
Sea Level Pressure 30.43 in    
Wind  
Wind Speed 0 mph (North)    
Max Wind Speed 4 mph    
Max Gust Speed -    
Visibility 10 miles    
Events      
Averages and records for this station are not official NWS values.
T = Trace of Precipitation, MM = Missing Value Source: NWS Daily Summary

Daily Weather History Graph

Daily Weather History Graph

Search for Another Location

Airport or City:

Trip Planner

Search our weather history database for the weather conditions in past years. The results will help you decide how hot, cold, wet, or windy it might be!

Date:

Astronomy

Jan. 10, 2014 Rise Set
Actual Time 7:17 AM EST 4:25 PM EST
Civil Twilight 6:44 AM EST 4:58 PM EST
Nautical Twilight 6:08 AM EST 5:34 PM EST
Astronomical Twilight 5:34 AM EST 6:08 PM EST
Moon 12:30 PM EST (1/10) 2:18 AM EST (1/10)
Length of Visible Light 10h 13m
Length of Day
9h 08m
Waxing Gibbous, 75% of the Moon is Illuminated
Jan 10
Waxing Gibbous
Jan 15
Full
Jan 24
Last Quarter
Jan 30
New
Feb 6
First Quarter

Hourly Weather History & Observations

Time (EST) Temp. Windchill Dew Point Humidity Pressure Visibility Wind Dir Wind Speed Gust Speed Precip Events Conditions
12:54 AM -8.0 °F - -13.0 °F 79% 30.58 in 10.0 mi Calm Calm - N/A   Clear
1:54 AM -9.9 °F - -15.0 °F 78% 30.59 in 10.0 mi Calm Calm - N/A   Clear
2:54 AM -11.0 °F - -16.1 °F 78% 30.58 in 10.0 mi Calm Calm - N/A   Clear
3:54 AM -9.0 °F - -14.1 °F 79% 30.56 in 10.0 mi Calm Calm - N/A   Clear
4:54 AM -9.0 °F - -14.1 °F 79% 30.53 in 10.0 mi Calm Calm - N/A   Clear
5:54 AM -8.0 °F - -14.1 °F 75% 30.53 in 10.0 mi Calm Calm - N/A   Clear
6:54 AM -8.0 °F - -13.0 °F 79% 30.51 in 10.0 mi Calm Calm - N/A   Scattered Clouds
7:54 AM -2.9 °F - -7.1 °F 82% 30.50 in 10.0 mi Calm Calm - N/A   Clear
8:54 AM 1.0 °F - -2.9 °F 83% 30.48 in 10.0 mi Calm Calm - N/A   Overcast
9:54 AM 5.0 °F - -0.0 °F 80% 30.48 in 10.0 mi Calm Calm - N/A   Overcast
10:54 AM 9.0 °F - 1.9 °F 73% 30.45 in 10.0 mi Calm Calm - N/A   Overcast
11:54 AM 15.1 °F - 3.9 °F 61% 30.42 in 10.0 mi Calm Calm - N/A   Overcast
12:54 PM 17.1 °F 11.7 °F 6.1 °F 62% 30.38 in 10.0 mi North 3.5 mph - N/A   Overcast
1:54 PM 19.9 °F - 9.0 °F 62% 30.37 in 10.0 mi Calm Calm - N/A   Overcast
2:54 PM 23.0 °F 18.4 °F 10.9 °F 60% 30.37 in 10.0 mi NE 3.5 mph - N/A   Overcast
3:54 PM 23.0 °F 18.4 °F 12.9 °F 65% 30.37 in 10.0 mi NW 3.5 mph - N/A   Overcast
4:54 PM 21.9 °F - 10.9 °F 63% 30.35 in 10.0 mi Calm Calm - N/A   Overcast
5:54 PM 21.9 °F - 10.9 °F 63% 30.34 in 10.0 mi Calm Calm - N/A   Overcast
6:54 PM 17.1 °F - 10.0 °F 74% 30.35 in 10.0 mi Calm Calm - N/A   Mostly Cloudy
7:54 PM 12.9 °F - 8.1 °F 81% 30.35 in 10.0 mi Calm Calm - N/A   Partly Cloudy
8:54 PM 14.0 °F - 8.1 °F 77% 30.34 in 10.0 mi Calm Calm - N/A   Overcast
9:54 PM 16.0 °F - 10.0 °F 77% 30.32 in 10.0 mi Calm Calm - N/A   Overcast
10:54 PM 18.0 °F - 12.0 °F 78% 30.32 in 10.0 mi Calm Calm - N/A   Overcast
11:54 PM 17.1 °F - 10.9 °F 77% 30.29 in 10.0 mi Calm Calm - N/A   Overcast